This is the latest recevied weather packets stored in our database for station/object VU3ZAG-WX. If no packets are shown the sender has not sent any weather packets the latest 10 day(s).
| Time | Temp. | Humidity | Pressure | Rain* | Wind** | Luminosity | Snow |
|---|---|---|---|---|---|---|---|
| 1777733693 | 32.78° C | 58% | 1008.4 hPa | - | - | - | - |
| 1777733088 | 32.78° C | 57% | 1008.5 hPa | - | - | - | - |
| 1777732482 | 32.22° C | 59% | 1008.5 hPa | - | - | - | - |
| 1777731876 | 32.78° C | 57% | 1008.5 hPa | - | - | - | - |
| 1777731271 | 32.78° C | 53% | 1008.5 hPa | - | - | - | - |
| 1777730665 | 32.78° C | 56% | 1008.5 hPa | - | - | - | - |
| 1777730059 | 32.78° C | 54% | 1008.4 hPa | - | - | - | - |
| 1777729453 | 32.78° C | 52% | 1008.3 hPa | - | - | - | - |
| 1777728848 | 32.22° C | 53% | 1008.2 hPa | - | - | - | - |
| 1777728242 | 31.67° C | 57% | 1008.2 hPa | - | - | - | - |
| 1777727637 | 32.22° C | 58% | 1008 hPa | - | - | - | - |
| 1777727031 | 32.22° C | 58% | 1007.8 hPa | - | - | - | - |
| 1777726425 | 32.78° C | 60% | 1007.6 hPa | - | - | - | - |
| 1777725820 | 33.33° C | 60% | 1007.5 hPa | - | - | - | - |
| 1777725214 | 34.44° C | 58% | 1007.2 hPa | - | - | - | - |
| 1777724609 | 35° C | 56% | 1007 hPa | - | - | - | - |
| 1777724002 | 35.56° C | 56% | 1006.7 hPa | - | - | - | - |
| 1777723396 | 36.11° C | 55% | 1006.4 hPa | - | - | - | - |
| 1777722790 | 36.11° C | 57% | 1006.3 hPa | - | - | - | - |
| 1777722185 | 36.11° C | 56% | 1006.1 hPa | - | - | - | - |
| 1777721579 | 36.11° C | 55% | 1006.1 hPa | - | - | - | - |
| 1777720973 | 36.11° C | 56% | 1006.2 hPa | - | - | - | - |
| 1777720367 | 36.67° C | 55% | 1006.3 hPa | - | - | - | - |
| 1777719761 | 36.67° C | 56% | 1006.4 hPa | - | - | - | - |
| 1777719156 | 36.67° C | 54% | 1006.4 hPa | - | - | - | - |
* Rain since midnight (hover to see other rain measurements)
** Current wind speed in m/s (hover to see current wind gust speed)